This is the latest recevied weather packets stored in our database for station/object KE6YLF. If no packets are shown the sender has not sent any weather packets the latest 10 day(s).
| Time | Temp. | Humidity | Pressure | Rain* | Wind** | Luminosity | Snow |
|---|---|---|---|---|---|---|---|
| 1788115034 | 36.67° C | 38% | 1077.5 hPa | 0 mm | - | - | - |
| 1788114729 | 36.67° C | 38% | 1077.4 hPa | 0 mm | - | - | - |
| 1788114424 | 36.11° C | 38% | 1077.7 hPa | 0 mm | - | - | - |
| 1788114120 | 37.22° C | 37% | 1077.7 hPa | 0 mm | - | - | - |
| 1788113811 | 36.11° C | 39% | 1077.8 hPa | 0 mm | - | - | - |
| 1788113510 | 36.11° C | 39% | 1077.8 hPa | 0 mm | - | - | - |
| 1788113209 | 35.56° C | 40% | 1077.8 hPa | 0 mm | - | - | - |
| 1788112904 | 36.67° C | 38% | 1077.8 hPa | 0 mm | - | - | - |
| 1788112603 | 35.56° C | 39% | 1077.8 hPa | 0 mm | - | - | - |
| 1788112298 | 35.56° C | 40% | 1077.9 hPa | 0 mm | - | - | - |
| 1788111994 | 35.56° C | 40% | 1078.1 hPa | 0 mm | - | - | - |
| 1788111689 | 36.11° C | 39% | 1078.1 hPa | 0 mm | - | - | - |
| 1788111384 | 35° C | 41% | 1078.1 hPa | 0 mm | - | - | - |
| 1788111079 | 35° C | 41% | 1078.1 hPa | 0 mm | - | - | - |
| 1788110776 | 35° C | 41% | 1078.1 hPa | 0 mm | - | - | - |
| 1788110472 | 35.56° C | 40% | 1078.3 hPa | 0 mm | - | - | - |
| 1788110167 | 35° C | 41% | 1078.2 hPa | 0 mm | - | - | - |
| 1788109862 | 35° C | 41% | 1078.3 hPa | 0 mm | - | - | - |
| 1788109556 | 33.89° C | 43% | 1078 hPa | 0 mm | - | - | - |
| 1788109255 | 33.33° C | 44% | 1078.3 hPa | 0 mm | - | - | - |
| 1788108945 | 33.89° C | 43% | 1078.3 hPa | 0 mm | - | - | - |
| 1788108641 | 33.89° C | 43% | 1078.2 hPa | 0 mm | - | - | - |
| 1788108337 | 33.33° C | 44% | 1078.2 hPa | 0 mm | - | - | - |
| 1788108033 | 33.33° C | 44% | 1078 hPa | 0 mm | - | - | - |
| 1788107729 | 33.33° C | 44% | 1078.1 hPa | 0 mm | - | - | - |
* Rain latest hour (hover to see other rain measurements)
** Current wind speed in m/s (hover to see current wind gust speed)